Starlink 32156

operational
NORAD ID: 60278 Int'l Des: 2024-132 Owner: SPXS Country: US Constellation: starlink
LEOCIRCULAR

Starlink 32156について

説明を読み込み中...

リアルタイム位置

3D地球を読み込み中...

次回通過

高度履歴

Altitude vs Time

uPlot chart will show altitude changes over time

軌道要素

1 60278U 24132A 25306.20836248 .00000434 00000-0 26790-4 0 9993
2 60278 53.1607 284.4842 0001364 86.3029 273.8128 15.30190703 73269
Epoch: Nov 2, 2025 • Age: 41 hours

現在のステータス

高度 475.1 km
速度 7.63 km/s
衛星直下点 14.26°N, 83.43°W
打ち上げ日 Jul 28, 2024
運用期間 1.2 years
タイプ internet

技術仕様

分類 Payload
質量 730.00 kg
乾燥質量 700.00 kg
総質量 730.00 kg
長さ 0.30 m
直径 4.10 m
スパン 29.00 m
形状 Box + pan
製造者 SPXS
バスタイプ Starlink V2M
フェーズステータス In Orbit
所有者/国 SPXS/US

大規模コンステレーション

Loading constellations...